SCP
0 0 0 0 0 0 0 0 0 0 0 0 -0 0 -0 -0 0 0 0 0 -0 -0 0 0 0 0 0 0 0 0 0 0 0 0 0 0 0 0 0 -0 -0 -0 -0 0 -0 -0 -0 -0 -0
0 0 0 0 0 0 0 0 0 -0 0 -0 0 0 -0 -0 0 0 0 0 -0 -0 -0 0 0 0 0 0 0 -0 -0 -0 0 0 0 0 0 0 -0 -0 -0 -0 -0 0 -0 -0 -0 0 -0
0 0 0 0 0 0 0 0 -0 0 0 0 0 0 0 0 0 0 0 -0 -0 -0 -0 -0 0 0 0 0 0 0 0 0 0 0 0 -0 -0 -0 -0 -0 -0 -0 -0 0 0 -0 0 -0 -0
0 0 0 0 0 0 -0 -0 -0 0 0 0 0 0 0 0 0 0 0 -0 -0 -0 -0 -0 0 0 0 0 0 0 0 0 0 0 0 0 0 0 -0 -0 -0 -0 -0 0 0 0 0 0 -0
0 0 0 0 0 0 0 0 0 0 0 0 0 0 0 0 0 0 0 0 -0 0 -0 -0 -0 0 0 0 0 0 0 0 0 0 0 0 0 -0 -0 -0 -0 -0 0 0 0 0 0 0 0
0 0 0 0 0 0 0 0 0 0 0 0 0 0 0 0 0 0 0 0 0 0 0 0 0 0 0 0 0 0 0 0 0 0 0 0 0 -0 -0 -0 -0 -0 0 0 0 0 0 0 0
0 0 0 0 0 0 0 0 0 0 0 0 0 0 -0 0 0 0 0 0 0 0 0 0 0 0 0 0 0 0 0 0 0 0 0 0 0 -0 -0 -0 -0 0 0 0 0 0 0 0 0
0 0 0 0 0 0 0 0 0 0 0 0 0 0 -0 0 0 0 0 0 0 0 0 0 0 0 0 0 0 0 0 0 0 0 0 0 0 -0 -0 0 0 0 0 0 0 0 0 0 0
0 0 0 0 0 0 0 0 0 0 0 0 0 0 0 0 0 0 0 0 0 0 0 0 0 0 0 0 0 0 0 0 0 0 0 0 0 -0 0 0 0 0 0 0 0 0 0 0 0
0 0 0 0 0 0 0 0 0 -0 0 0 0 0 0 0 0 0 0 0 0 0 0 0 0 0 0 0 0 0 0 0 0 0 0 0 0 0 0 0 0 0 0 0 0 0 0 0 0
0 0 0 0 0 0 0 0 0 0 0 0 0 0 0 0 0 0 0 0 0 0 0 0 0 0 0 0 0 0 0 0 0 0 0 0 0 0 0 0 0 0 0 0 0 0 0 0 0
0 0 0 0 0 0 0 0 0 0 0 0 0 0 0 -0 -0 -0 -0 0 0 0 0 0 0 0 0 0 0 0 0 0 0 0 0 0 0 0 0 0 0 0 0 0 0 0 0 0 0
0 0 0 0 0 0 0 0 0 0 0 0 0 0 -0 -0 -0 -0 -0 -0 -0 0 0 0 0 0 0 0 0 0 0 0 0 0 0 0 0 0 0 0 0 0 0 0 0 0 0 0 0
0 0 0 0 0 0 0 0 0 0 0 0 0 0 0 0 -0 0 -0 -0 -0 0 -0 0 0 0 0 0 0 0 0 0 0 0 0 0 0 0 0 0 0 0 0 0 0 0 0 0 0
0 0 0 0 0 0 0 0 0 0 0 0 0 0 0 0 0 0 0 -0 0 0 0 0 0 0 0 0 0 0 0 0 0 0 0 0 0 0 0 0 0 0 0 0 0 0 0 0 0
0 0 0 0 0 0 0 0 0 0 0 0 0 0 0 0 0 0 0 0 0 0 0 0 0 0 0 0 0 0 0 0 0 0 0 0 0 0 0 0 0 0 0 0 0 0 0 0 0
0 0 0 0 0 0 0 0 0 0 0 0 0 0 0 0 0 0 0 0 0 0 0 0 0 0 0 0 0 0 0 0 0 0 0 0 0 0 0 0 0 0 0 0 0 0 0 0 0
0 0 0 0 0 0 0 0 0 0 0 0 0 0 0 0 0 0 0 0 0 0 0 0 0 0 0 0 0 0 0 0 0 0 0 0 0 0 0 0 0 0 0 0 0 0 0 0 0
0 0 0 0 0 0 0 0 0 0 0 0 0 0 0 0 0 0 0 0 0 0 0 0 0 0 0 0 0 0 0 0 0 0 0 0 0 0 0 0 0 0 0 0 0 0 0 0 0
0 0 0 0 0 0 0 0 0 0 0 0 0 0 0 0 0 0 0 0 0 0 0 0 0 0 0 0 0 0 0 0 0 0 0 0 0 0 0 0 0 0 0 0 0 0 0 0 0
0 0 0 0 0 0 0 0 0 0 0 0 0 0 0 0 0 0 0 0 0 0 0 0 0 0 0 0 0 0 0 0 0 0 0 0 0 0 0 0 0 0 0 0 0 0 0 0 0
0 0 0 0 0 0 0 0 0 0 0 0 0 0 0 0 0 0 0 0 0 0 0 0 0 0 0 0 0 0 0 0 0 0 0 0 0 0 0 0 0 0 0 0 0 0 0 0 0
0 0 0 0 0 0 0 0 0 0 0 0 0 0 0 0 0 0 0 0 0 0 0 0 0 0 0 0 0 0 0 0 0 0 0 0 0 0 0 0 0 0 0 0 0 0 0 0 0
0 0 0 0 0 0 0 0 0 0 0 0 0 0 0 0 0 0 0 0 0 0 0 0 0 0 0 0 0 0 0 0 0 0 0 0 0 0 0 0 0 0 0 0 0 0 0 0 0
0 0 0 0 0 0 0 0 0 0 0 0 0 0 0 0 0 0 0 0 0 0 0 0 0 0 0 0 0 0 0 0 0 0 0 0 0 0 0 0 0 0 0 0 0 0 0 0 0
0 0 0 0 0 0 0 0 0 0 0 0 0 0 0 0 0 0 0 0 0 0 0 0 0 0 0 0 0 0 0 0 0 0 0 0 0 0 0 0 0 0 0 0 0 0 0 0 0
0 0 0 0 0 0 0 0 0 0 0 0 0 0 0 0 0 0 0 0 0 0 0 0 0 0 0 0 0 0 0 0 0 0 0 0 0 0 0 0 0 0 0 0 0 0 0 0 0
0 0 0 0 0 0 0 0 0 0 0 0 0 0 0 0 0 0 0 0 0 0 0 0 0 0 0 0 0 0 0 0 0 0 0 0 0 0 0 0 0 0 0 0 0 0 0 0 0
0 0 0 0 0 0 0 0 0 0 0 0 0 0 0 0 0 0 0 0 0 0 0 0 0 0 0 0 0 0 0 0 0 0 0 0 0 0 0 0 0 0 0 0 0 0 0 0 0
0 0 0 0 0 0 0 0 0 0 0 0 0 0 0 0 0 0 0 0 0 0 0 0 0 0 0 0 0 0 0 0 0 0 0 0 0 0 0 0 0 0 0 0 0 0 0 0 0
Wind_Speed_500mb
12 13 12 8 6 8 1 3 5 13 10 17 18 18 25 29 11 10 34 18 28 26 31 29 24 22 23 24 27 25 24 25 17 8 6 8 10 12 14 15 14 15 15 15 15 15 16 16 16
12 9 7 13 7 5 1 4 10 22 19 20 10 5 23 18 19 27 28 31 36 24 33 30 26 25 24 25 25 22 19 18 14 9 7 8 8 9 10 10 9 11 12 12 11 12 12 13 13
1 2 10 7 11 4 3 17 22 24 15 11 7 13 13 15 19 23 20 40 35 24 27 29 26 25 25 24 28 24 17 12 9 6 5 5 5 5 5 6 6 7 8 8 8 9 9 9 9
4 6 15 6 10 9 13 6 31 22 11 8 14 17 18 11 9 13 39 44 34 26 25 25 25 25 24 20 20 20 15 10 6 4 2 1 1 2 3 5 6 7 7 7 7 7 7 7 8
13 12 10 11 9 13 12 16 19 12 19 16 7 15 18 13 15 22 45 41 34 33 26 26 25 25 24 20 17 16 13 9 5 4 4 4 6 6 6 7 8 8 9 11 10 11 11 13 14
10 10 12 11 5 16 14 9 2 10 15 15 4 16 12 15 17 29 38 33 28 31 24 28 25 23 20 20 19 14 10 10 8 7 6 7 10 11 10 12 13 12 13 15 16 16 16 16 18
14 9 22 5 4 8 15 9 3 7 10 25 10 8 19 19 22 33 30 29 27 26 22 30 26 25 21 18 16 18 19 15 12 12 13 13 14 16 16 17 18 17 18 20 22 21 21 21 22
10 7 15 6 20 9 11 10 14 23 15 15 9 11 20 20 23 28 41 32 27 21 17 20 27 24 22 21 19 19 19 17 18 20 22 20 19 19 20 22 21 21 23 25 26 27 26 26 27
7 7 14 12 7 15 20 16 4 10 20 22 11 25 22 13 13 20 31 31 27 21 19 16 16 16 18 19 21 22 23 26 22 25 23 21 19 23 23 23 23 23 25 27 27 28 28 29 28
9 8 7 20 22 13 15 9 18 10 21 25 16 26 13 9 12 15 29 37 32 21 22 20 21 20 17 13 19 19 23 27 25 26 24 22 22 21 20 30 31 28 29 29 28 30 31 33 34
10 13 11 22 16 17 17 5 9 8 6 24 36 25 15 8 11 13 17 23 29 28 18 24 23 23 23 25 26 24 21 24 24 25 26 28 28 28 29 31 31 33 30 32 32 35 35 36 37
8 25 21 15 10 6 8 11 9 18 19 27 28 9 11 8 9 9 9 11 14 27 31 24 26 26 27 27 28 27 27 25 28 28 30 33 34 33 33 34 36 37 38 38 35 37 38 42 44
9 23 7 9 11 12 8 9 10 15 18 17 20 16 11 10 5 6 3 2 9 14 16 25 33 34 30 33 31 30 29 31 31 32 33 35 35 36 35 36 38 38 39 40 43 42 42 45 48
9 27 8 7 10 4 6 13 2 15 14 11 19 20 17 16 10 5 6 7 7 13 15 26 32 31 36 34 33 33 35 33 36 38 36 38 40 38 39 40 41 42 42 42 43 45 47 49 51
1 2 4 11 12 6 3 3 6 23 16 13 14 25 19 17 16 11 6 7 9 11 16 18 23 22 26 36 38 37 34 36 37 39 41 39 42 44 42 43 46 46 46 46 46 47 50 51 51
9 1 7 15 16 4 6 9 15 11 12 6 16 30 28 30 20 13 10 12 11 8 13 20 23 24 29 26 30 37 37 36 37 37 37 41 42 42 44 45 46 47 48 47 49 49 52 55 56
11 12 22 4 6 4 9 7 10 15 11 16 26 36 30 21 16 15 10 3 6 16 17 15 21 30 33 36 29 26 27 31 33 36 36 36 37 43 47 48 48 48 51 53 53 54 54 57 60
18 23 24 21 4 5 9 4 11 27 20 36 47 42 34 30 28 22 19 13 7 5 11 19 22 17 25 30 29 29 31 33 35 36 36 37 38 39 42 46 48 45 48 51 53 54 53 55 58
20 20 13 13 5 4 8 3 24 39 44 41 45 40 36 37 28 26 26 23 21 18 13 7 11 17 15 19 20 26 30 30 31 35 35 38 42 44 45 47 49 50 49 51 53 57 57 60 62
16 13 14 5 8 4 9 25 19 29 30 37 39 38 34 33 35 33 33 32 32 32 31 28 19 7 11 12 11 15 20 19 17 25 27 34 34 32 34 36 39 42 44 45 47 51 57 59 58
25 26 17 21 9 16 14 6 2 17 33 38 39 40 40 38 39 39 41 41 38 39 40 36 34 28 16 2 6 6 12 12 12 14 20 23 26 30 31 32 35 37 40 44 45 48 49 53 52
26 29 15 16 12 11 8 6 11 17 18 27 33 36 37 37 38 40 44 47 46 45 41 42 38 35 34 21 17 15 13 15 18 23 24 26 24 21 24 26 29 32 36 42 43 43 46 49 52
12 21 13 6 8 8 6 6 6 18 19 18 27 31 34 34 39 41 41 44 43 43 44 44 42 43 43 40 35 30 26 23 20 20 20 19 20 20 23 25 27 29 29 30 33 35 38 40 47
23 10 24 12 3 6 15 9 8 8 22 16 27 29 30 29 35 37 39 41 42 40 39 39 38 39 36 35 33 32 31 30 28 29 29 30 30 29 30 32 32 32 33 34 36 38 41 42 44
25 29 7 6 3 4 20 8 8 18 20 25 26 29 27 29 34 36 39 40 39 40 39 40 40 41 39 37 36 37 35 34 36 39 40 41 42 43 44 45 44 44 44 44 45 47 48 48 47
19 22 9 9 11 9 16 10 5 17 27 29 30 27 25 28 29 33 34 35 36 36 37 38 39 39 38 37 38 38 37 39 39 40 41 43 44 47 49 50 51 52 54 55 55 55 55 56 56
9 16 5 12 4 7 11 8 6 15 15 28 31 25 25 24 25 28 30 32 33 34 35 35 35 36 37 39 38 38 39 39 41 41 43 45 48 50 52 54 55 57 60 63 65 66 66 64 61
5 13 6 3 10 9 8 12 10 19 19 17 25 27 22 21 20 20 23 27 29 31 32 32 34 36 38 39 40 42 43 43 45 47 49 51 52 55 57 59 60 63 65 67 69 69 69 69 67
2 5 3 7 3 7 9 1 18 28 21 19 27 22 18 17 14 15 20 23 26 28 30 32 33 37 38 40 43 46 47 49 50 52 54 56 58 59 60 61 62 63 65 67 69 69 70 71 70
8 3 8 7 5 4 7 4 9 17 33 37 26 17 14 11 12 13 14 16 20 25 27 31 32 35 35 36 37 40 43 47 51 52 54 56 58 60 62 63 65 65 65 67 68 69 67 67 67
Wind_Direction_500mb
117 120 72 251 248 219 324 222 52 91 103 54 62 33 79 53 22 102 141 146 176 179 164 155 154 146 138 140 134 137 143 157 162 152 123 93 86 84 84 82 82 80 75 74 77 79 79 77 74
98 346 282 261 253 340 84 158 104 78 80 93 83 55 84 84 60 121 152 149 160 180 160 157 152 146 142 144 133 129 129 134 145 141 123 101 86 81 80 75 73 72 68 63 60 59 56 55 54
89 220 269 213 236 129 43 289 92 88 96 142 129 36 35 83 78 128 163 148 167 173 156 153 152 150 149 150 145 145 161 147 140 140 119 85 77 73 60 46 37 43 42 40 38 40 35 26 19
24 267 264 271 310 156 145 164 110 111 100 5 344 89 85 68 111 172 147 150 163 155 164 159 155 154 150 154 160 165 168 158 153 153 143 135 26 10 7 357 349 1 1 353 352 356 353 345 340
315 269 257 222 211 103 85 19 126 160 140 132 343 97 85 57 125 137 139 154 165 155 175 168 161 160 161 173 166 167 169 173 195 229 246 269 286 295 309 316 318 323 329 329 327 321 320 320 320
292 243 265 240 197 98 87 105 199 123 90 82 210 103 80 100 110 139 143 155 158 166 179 170 167 168 171 178 181 177 201 222 237 245 261 281 285 286 294 295 293 301 307 307 308 309 307 307 306
243 288 265 50 34 139 108 143 137 112 138 57 33 42 118 115 127 138 145 155 155 181 190 172 173 177 181 189 188 191 209 235 251 257 265 275 285 295 299 297 294 294 295 297 298 299 297 300 301
308 283 291 200 174 113 128 134 62 47 63 83 53 33 130 161 169 165 154 166 156 197 185 180 185 186 191 198 206 212 222 237 247 255 259 263 273 282 288 290 289 289 291 293 295 295 295 296 297
283 283 266 265 166 112 147 114 63 103 112 72 82 90 133 170 174 160 161 141 166 203 180 195 201 205 207 215 219 229 233 238 240 256 267 278 280 284 284 289 284 293 292 293 291 291 292 293 295
224 234 326 301 14 113 154 159 140 175 129 125 104 112 157 148 158 158 166 156 179 202 189 204 210 214 214 226 253 247 248 259 269 277 282 285 288 285 283 288 296 295 293 289 289 289 292 292 294
223 248 309 86 11 5 125 85 96 234 161 117 163 147 168 155 154 162 175 191 189 173 222 210 224 220 224 219 235 258 263 264 271 280 285 286 288 288 285 286 287 288 288 287 285 285 287 290 292
257 250 278 92 62 19 118 87 148 49 91 92 93 140 132 131 127 145 174 211 210 202 194 214 228 236 236 239 245 250 260 263 269 273 271 276 280 280 279 283 291 294 295 294 291 293 295 296 295
241 283 141 69 77 58 88 75 52 130 116 103 103 117 92 90 87 103 142 246 193 238 219 232 225 226 241 249 248 259 260 268 273 274 274 278 280 281 283 286 287 285 286 289 293 294 294 292 293
350 248 216 140 154 99 298 113 291 83 116 118 109 99 100 113 121 138 160 215 234 262 241 232 240 246 228 245 256 255 262 267 273 279 280 281 286 286 286 287 287 287 289 294 292 291 291 292 292
65 275 241 208 197 138 218 215 230 127 118 122 124 114 93 80 83 92 50 343 299 280 269 268 265 267 246 244 246 258 262 262 269 274 279 278 277 282 283 284 285 288 292 292 290 289 289 290 292
207 309 211 197 150 173 187 219 93 104 119 112 83 96 91 89 77 102 145 168 169 231 273 288 275 276 275 267 257 255 260 269 266 266 271 280 284 282 283 283 284 286 287 287 287 289 291 292 293
216 189 244 101 347 109 202 169 98 74 78 99 95 93 85 78 48 32 26 29 208 209 205 229 264 271 275 281 275 265 262 272 268 272 277 276 276 286 290 286 283 283 286 288 289 288 288 290 291
185 204 204 235 63 358 192 153 113 56 44 53 70 77 72 61 45 32 36 35 355 301 240 230 221 239 278 280 278 276 265 265 269 267 269 276 277 277 278 284 289 289 284 285 285 286 287 288 291
213 198 215 45 353 267 202 228 49 48 49 52 62 64 65 66 55 40 41 43 42 36 22 337 257 228 229 278 284 281 280 283 292 291 288 282 279 277 278 277 279 283 284 282 282 284 284 285 288
240 215 199 142 109 289 80 48 50 54 49 68 73 68 64 61 53 45 47 53 53 50 46 41 36 4 233 227 256 281 289 282 305 312 316 308 306 307 306 304 300 295 294 291 290 289 290 294 295
197 233 202 151 133 65 82 352 148 85 71 66 68 73 67 64 61 53 54 57 60 58 53 49 49 49 43 251 272 238 300 331 320 321 312 315 314 316 311 310 309 306 310 308 304 306 304 304 305
191 222 72 113 158 178 193 207 248 126 98 80 71 67 65 64 66 65 62 64 64 63 63 61 57 56 59 61 57 38 14 358 338 322 309 305 306 296 291 298 299 295 296 298 302 304 304 304 303
211 161 153 53 14 122 246 140 156 140 113 95 85 77 71 67 68 67 66 67 67 67 63 64 63 62 60 60 60 61 65 58 44 40 33 27 19 6 0 351 344 338 332 328 323 317 313 304 297
119 98 102 94 6 212 189 175 201 170 131 104 90 77 69 69 72 72 71 69 66 62 59 56 56 55 52 49 46 41 33 25 19 16 10 7 359 353 347 343 341 336 331 327 322 320 316 315 311
160 153 121 150 200 188 165 144 58 79 77 101 98 84 76 67 66 66 65 64 62 58 52 48 44 45 42 38 36 33 28 19 13 8 4 357 353 349 347 345 342 337 332 326 320 318 315 314 310
200 181 141 155 170 160 135 179 121 89 101 104 96 90 82 71 62 59 57 55 53 51 47 43 40 39 36 32 30 24 18 15 9 5 0 355 351 347 343 339 338 335 333 330 326 324 320 316 311
204 226 72 103 85 110 145 100 67 136 129 118 110 99 80 69 59 52 48 47 45 43 42 38 35 31 25 21 17 13 8 3 0 355 350 346 342 338 335 334 331 330 328 327 325 324 323 320 319
221 137 84 10 142 155 181 168 166 166 148 145 124 107 90 76 63 55 49 44 42 39 36 29 22 17 12 6 1 359 356 353 349 344 341 338 335 332 330 328 327 325 324 322 320 320 319 318 317
148 152 44 107 130 150 142 222 153 154 154 123 116 104 93 77 74 62 58 47 39 29 21 17 7 2 357 354 350 347 344 342 339 337 335 334 333 331 330 329 328 326 325 321 321 320 319 318 318
342 213 165 132 223 43 90 106 100 118 118 124 122 112 99 109 96 86 56 39 29 15 2 356 349 345 342 341 339 338 337 336 335 333 333 331 329 329 329 328 328 327 326 322 323 322 322 323 323
Wind_Speed_850mb
12 13 12 8 6 8 1 3 5 13 10 17 18 18 25 29 11 10 34 18 28 26 31 29 24 22 23 24 27 25 24 25 17 8 6 8 10 12 14 15 14 15 15 15 15 15 16 16 16
12 9 7 13 7 5 1 4 10 22 19 20 10 5 23 18 19 27 28 31 36 24 33 30 26 25 24 25 25 22 19 18 14 9 7 8 8 9 10 10 9 11 12 12 11 12 12 13 13
1 2 10 7 11 4 3 17 22 24 15 11 7 13 13 15 19 23 20 40 35 24 27 29 26 25 25 24 28 24 17 12 9 6 5 5 5 5 5 6 6 7 8 8 8 9 9 9 9
4 6 15 6 10 9 13 6 31 22 11 8 14 17 18 11 9 13 39 44 34 26 25 25 25 25 24 20 20 20 15 10 6 4 2 1 1 2 3 5 6 7 7 7 7 7 7 7 8
13 12 10 11 9 13 12 16 19 12 19 16 7 15 18 13 15 22 45 41 34 33 26 26 25 25 24 20 17 16 13 9 5 4 4 4 6 6 6 7 8 8 9 11 10 11 11 13 14
10 10 12 11 5 16 14 9 2 10 15 15 4 16 12 15 17 29 38 33 28 31 24 28 25 23 20 20 19 14 10 10 8 7 6 7 10 11 10 12 13 12 13 15 16 16 16 16 18
14 9 22 5 4 8 15 9 3 7 10 25 10 8 19 19 22 33 30 29 27 26 22 30 26 25 21 18 16 18 19 15 12 12 13 13 14 16 16 17 18 17 18 20 22 21 21 21 22
10 7 15 6 20 9 11 10 14 23 15 15 9 11 20 20 23 28 41 32 27 21 17 20 27 24 22 21 19 19 19 17 18 20 22 20 19 19 20 22 21 21 23 25 26 27 26 26 27
7 7 14 12 7 15 20 16 4 10 20 22 11 25 22 13 13 20 31 31 27 21 19 16 16 16 18 19 21 22 23 26 22 25 23 21 19 23 23 23 23 23 25 27 27 28 28 29 28
9 8 7 20 22 13 15 9 18 10 21 25 16 26 13 9 12 15 29 37 32 21 22 20 21 20 17 13 19 19 23 27 25 26 24 22 22 21 20 30 31 28 29 29 28 30 31 33 34
10 13 11 22 16 17 17 5 9 8 6 24 36 25 15 8 11 13 17 23 29 28 18 24 23 23 23 25 26 24 21 24 24 25 26 28 28 28 29 31 31 33 30 32 32 35 35 36 37
8 25 21 15 10 6 8 11 9 18 19 27 28 9 11 8 9 9 9 11 14 27 31 24 26 26 27 27 28 27 27 25 28 28 30 33 34 33 33 34 36 37 38 38 35 37 38 42 44
9 23 7 9 11 12 8 9 10 15 18 17 20 16 11 10 5 6 3 2 9 14 16 25 33 34 30 33 31 30 29 31 31 32 33 35 35 36 35 36 38 38 39 40 43 42 42 45 48
9 27 8 7 10 4 6 13 2 15 14 11 19 20 17 16 10 5 6 7 7 13 15 26 32 31 36 34 33 33 35 33 36 38 36 38 40 38 39 40 41 42 42 42 43 45 47 49 51
1 2 4 11 12 6 3 3 6 23 16 13 14 25 19 17 16 11 6 7 9 11 16 18 23 22 26 36 38 37 34 36 37 39 41 39 42 44 42 43 46 46 46 46 46 47 50 51 51
9 1 7 15 16 4 6 9 15 11 12 6 16 30 28 30 20 13 10 12 11 8 13 20 23 24 29 26 30 37 37 36 37 37 37 41 42 42 44 45 46 47 48 47 49 49 52 55 56
11 12 22 4 6 4 9 7 10 15 11 16 26 36 30 21 16 15 10 3 6 16 17 15 21 30 33 36 29 26 27 31 33 36 36 36 37 43 47 48 48 48 51 53 53 54 54 57 60
18 23 24 21 4 5 9 4 11 27 20 36 47 42 34 30 28 22 19 13 7 5 11 19 22 17 25 30 29 29 31 33 35 36 36 37 38 39 42 46 48 45 48 51 53 54 53 55 58
20 20 13 13 5 4 8 3 24 39 44 41 45 40 36 37 28 26 26 23 21 18 13 7 11 17 15 19 20 26 30 30 31 35 35 38 42 44 45 47 49 50 49 51 53 57 57 60 62
16 13 14 5 8 4 9 25 19 29 30 37 39 38 34 33 35 33 33 32 32 32 31 28 19 7 11 12 11 15 20 19 17 25 27 34 34 32 34 36 39 42 44 45 47 51 57 59 58
25 26 17 21 9 16 14 6 2 17 33 38 39 40 40 38 39 39 41 41 38 39 40 36 34 28 16 2 6 6 12 12 12 14 20 23 26 30 31 32 35 37 40 44 45 48 49 53 52
26 29 15 16 12 11 8 6 11 17 18 27 33 36 37 37 38 40 44 47 46 45 41 42 38 35 34 21 17 15 13 15 18 23 24 26 24 21 24 26 29 32 36 42 43 43 46 49 52
12 21 13 6 8 8 6 6 6 18 19 18 27 31 34 34 39 41 41 44 43 43 44 44 42 43 43 40 35 30 26 23 20 20 20 19 20 20 23 25 27 29 29 30 33 35 38 40 47
23 10 24 12 3 6 15 9 8 8 22 16 27 29 30 29 35 37 39 41 42 40 39 39 38 39 36 35 33 32 31 30 28 29 29 30 30 29 30 32 32 32 33 34 36 38 41 42 44
25 29 7 6 3 4 20 8 8 18 20 25 26 29 27 29 34 36 39 40 39 40 39 40 40 41 39 37 36 37 35 34 36 39 40 41 42 43 44 45 44 44 44 44 45 47 48 48 47
19 22 9 9 11 9 16 10 5 17 27 29 30 27 25 28 29 33 34 35 36 36 37 38 39 39 38 37 38 38 37 39 39 40 41 43 44 47 49 50 51 52 54 55 55 55 55 56 56
9 16 5 12 4 7 11 8 6 15 15 28 31 25 25 24 25 28 30 32 33 34 35 35 35 36 37 39 38 38 39 39 41 41 43 45 48 50 52 54 55 57 60 63 65 66 66 64 61
5 13 6 3 10 9 8 12 10 19 19 17 25 27 22 21 20 20 23 27 29 31 32 32 34 36 38 39 40 42 43 43 45 47 49 51 52 55 57 59 60 63 65 67 69 69 69 69 67
2 5 3 7 3 7 9 1 18 28 21 19 27 22 18 17 14 15 20 23 26 28 30 32 33 37 38 40 43 46 47 49 50 52 54 56 58 59 60 61 62 63 65 67 69 69 70 71 70
8 3 8 7 5 4 7 4 9 17 33 37 26 17 14 11 12 13 14 16 20 25 27 31 32 35 35 36 37 40 43 47 51 52 54 56 58 60 62 63 65 65 65 67 68 69 67 67 67
Wind_Direction_850mb
117 120 72 251 248 219 324 222 52 91 103 54 62 33 79 53 22 102 141 146 176 179 164 155 154 146 138 140 134 137 143 157 162 152 123 93 86 84 84 82 82 80 75 74 77 79 79 77 74
98 346 282 261 253 340 84 158 104 78 80 93 83 55 84 84 60 121 152 149 160 180 160 157 152 146 142 144 133 129 129 134 145 141 123 101 86 81 80 75 73 72 68 63 60 59 56 55 54
89 220 269 213 236 129 43 289 92 88 96 142 129 36 35 83 78 128 163 148 167 173 156 153 152 150 149 150 145 145 161 147 140 140 119 85 77 73 60 46 37 43 42 40 38 40 35 26 19
24 267 264 271 310 156 145 164 110 111 100 5 344 89 85 68 111 172 147 150 163 155 164 159 155 154 150 154 160 165 168 158 153 153 143 135 26 10 7 357 349 1 1 353 352 356 353 345 340
315 269 257 222 211 103 85 19 126 160 140 132 343 97 85 57 125 137 139 154 165 155 175 168 161 160 161 173 166 167 169 173 195 229 246 269 286 295 309 316 318 323 329 329 327 321 320 320 320
292 243 265 240 197 98 87 105 199 123 90 82 210 103 80 100 110 139 143 155 158 166 179 170 167 168 171 178 181 177 201 222 237 245 261 281 285 286 294 295 293 301 307 307 308 309 307 307 306
243 288 265 50 34 139 108 143 137 112 138 57 33 42 118 115 127 138 145 155 155 181 190 172 173 177 181 189 188 191 209 235 251 257 265 275 285 295 299 297 294 294 295 297 298 299 297 300 301
308 283 291 200 174 113 128 134 62 47 63 83 53 33 130 161 169 165 154 166 156 197 185 180 185 186 191 198 206 212 222 237 247 255 259 263 273 282 288 290 289 289 291 293 295 295 295 296 297
283 283 266 265 166 112 147 114 63 103 112 72 82 90 133 170 174 160 161 141 166 203 180 195 201 205 207 215 219 229 233 238 240 256 267 278 280 284 284 289 284 293 292 293 291 291 292 293 295
224 234 326 301 14 113 154 159 140 175 129 125 104 112 157 148 158 158 166 156 179 202 189 204 210 214 214 226 253 247 248 259 269 277 282 285 288 285 283 288 296 295 293 289 289 289 292 292 294
223 248 309 86 11 5 125 85 96 234 161 117 163 147 168 155 154 162 175 191 189 173 222 210 224 220 224 219 235 258 263 264 271 280 285 286 288 288 285 286 287 288 288 287 285 285 287 290 292
257 250 278 92 62 19 118 87 148 49 91 92 93 140 132 131 127 145 174 211 210 202 194 214 228 236 236 239 245 250 260 263 269 273 271 276 280 280 279 283 291 294 295 294 291 293 295 296 295
241 283 141 69 77 58 88 75 52 130 116 103 103 117 92 90 87 103 142 246 193 238 219 232 225 226 241 249 248 259 260 268 273 274 274 278 280 281 283 286 287 285 286 289 293 294 294 292 293
350 248 216 140 154 99 298 113 291 83 116 118 109 99 100 113 121 138 160 215 234 262 241 232 240 246 228 245 256 255 262 267 273 279 280 281 286 286 286 287 287 287 289 294 292 291 291 292 292
65 275 241 208 197 138 218 215 230 127 118 122 124 114 93 80 83 92 50 343 299 280 269 268 265 267 246 244 246 258 262 262 269 274 279 278 277 282 283 284 285 288 292 292 290 289 289 290 292
207 309 211 197 150 173 187 219 93 104 119 112 83 96 91 89 77 102 145 168 169 231 273 288 275 276 275 267 257 255 260 269 266 266 271 280 284 282 283 283 284 286 287 287 287 289 291 292 293
216 189 244 101 347 109 202 169 98 74 78 99 95 93 85 78 48 32 26 29 208 209 205 229 264 271 275 281 275 265 262 272 268 272 277 276 276 286 290 286 283 283 286 288 289 288 288 290 291
185 204 204 235 63 358 192 153 113 56 44 53 70 77 72 61 45 32 36 35 355 301 240 230 221 239 278 280 278 276 265 265 269 267 269 276 277 277 278 284 289 289 284 285 285 286 287 288 291
213 198 215 45 353 267 202 228 49 48 49 52 62 64 65 66 55 40 41 43 42 36 22 337 257 228 229 278 284 281 280 283 292 291 288 282 279 277 278 277 279 283 284 282 282 284 284 285 288
240 215 199 142 109 289 80 48 50 54 49 68 73 68 64 61 53 45 47 53 53 50 46 41 36 4 233 227 256 281 289 282 305 312 316 308 306 307 306 304 300 295 294 291 290 289 290 294 295
197 233 202 151 133 65 82 352 148 85 71 66 68 73 67 64 61 53 54 57 60 58 53 49 49 49 43 251 272 238 300 331 320 321 312 315 314 316 311 310 309 306 310 308 304 306 304 304 305
191 222 72 113 158 178 193 207 248 126 98 80 71 67 65 64 66 65 62 64 64 63 63 61 57 56 59 61 57 38 14 358 338 322 309 305 306 296 291 298 299 295 296 298 302 304 304 304 303
211 161 153 53 14 122 246 140 156 140 113 95 85 77 71 67 68 67 66 67 67 67 63 64 63 62 60 60 60 61 65 58 44 40 33 27 19 6 0 351 344 338 332 328 323 317 313 304 297
119 98 102 94 6 212 189 175 201 170 131 104 90 77 69 69 72 72 71 69 66 62 59 56 56 55 52 49 46 41 33 25 19 16 10 7 359 353 347 343 341 336 331 327 322 320 316 315 311
160 153 121 150 200 188 165 144 58 79 77 101 98 84 76 67 66 66 65 64 62 58 52 48 44 45 42 38 36 33 28 19 13 8 4 357 353 349 347 345 342 337 332 326 320 318 315 314 310
200 181 141 155 170 160 135 179 121 89 101 104 96 90 82 71 62 59 57 55 53 51 47 43 40 39 36 32 30 24 18 15 9 5 0 355 351 347 343 339 338 335 333 330 326 324 320 316 311
204 226 72 103 85 110 145 100 67 136 129 118 110 99 80 69 59 52 48 47 45 43 42 38 35 31 25 21 17 13 8 3 0 355 350 346 342 338 335 334 331 330 328 327 325 324 323 320 319
221 137 84 10 142 155 181 168 166 166 148 145 124 107 90 76 63 55 49 44 42 39 36 29 22 17 12 6 1 359 356 353 349 344 341 338 335 332 330 328 327 325 324 322 320 320 319 318 317
148 152 44 107 130 150 142 222 153 154 154 123 116 104 93 77 74 62 58 47 39 29 21 17 7 2 357 354 350 347 344 342 339 337 335 334 333 331 330 329 328 326 325 321 321 320 319 318 318
342 213 165 132 223 43 90 106 100 118 118 124 122 112 99 109 96 86 56 39 29 15 2 356 349 345 342 341 339 338 337 336 335 333 333 331 329 329 329 328 328 327 326 322 323 322 322 323 323